Theta_e
320 319 317 315 314 315 316 317 319 320 321 320 318 319 323 324 325 326 326 324 323 322 322 322 321 322 324 326 326 325 324 324 325 325 325 326 326 328 329 327 325 323
320 320 319 315 315 315 316 317 318 319 319 318 318 320 323 324 324 324 324 323 323 323 323 322 322 322 325 328 328 326 325 324 324 325 325 326 327 328 328 326 324 323
320 320 319 316 316 316 316 317 317 318 318 318 319 322 324 325 324 324 323 322 322 322 322 322 322 322 323 327 328 327 326 326 326 326 326 326 326 326 326 326 325 324
321 321 319 317 316 316 316 318 318 318 318 320 322 324 325 325 323 321 321 322 322 321 321 322 322 321 321 324 327 327 327 326 328 328 328 327 326 326 326 326 325 325
321 321 320 317 316 316 317 318 317 318 320 323 325 325 325 326 324 321 322 326 325 324 324 325 324 323 322 323 324 326 326 327 328 329 329 328 327 326 326 327 326 326
321 321 320 318 317 316 317 317 318 320 323 326 326 326 327 327 325 323 325 329 328 327 327 327 326 326 325 325 325 326 326 327 328 328 329 329 329 328 328 328 328 327
321 321 320 319 318 317 318 318 318 321 325 326 327 327 327 328 328 327 328 329 328 327 327 327 327 327 327 328 328 327 327 328 328 328 327 327 328 329 330 329 330 329
321 322 321 319 318 317 318 318 318 322 325 326 326 328 328 329 329 329 329 329 328 327 328 328 329 328 328 329 329 328 328 328 328 328 327 327 327 328 329 330 329 329
322 322 321 319 318 317 318 318 319 323 326 325 326 327 329 329 329 330 330 330 329 328 328 329 329 328 328 329 329 329 328 328 328 328 328 327 327 327 328 327 326 325
322 322 320 319 319 317 318 319 321 325 326 326 327 329 329 329 329 329 328 328 328 328 329 329 329 328 328 329 329 329 329 328 328 328 328 328 328 327 326 325 324 323
322 322 321 320 319 318 320 321 324 327 328 329 330 330 330 329 329 328 328 329 329 330 330 329 329 328 328 328 329 329 329 328 327 328 329 328 328 327 326 325 325 324
323 322 322 322 321 320 322 324 326 328 330 331 332 331 330 329 329 329 329 330 330 330 329 328 328 329 328 328 328 327 327 327 328 329 329 329 329 328 327 327 324 321
325 326 326 325 322 321 322 323 326 329 332 333 333 332 331 330 330 330 331 331 329 328 326 326 327 327 326 326 326 327 326 327 328 328 328 329 329 328 327 325 322 321
330 330 329 326 323 322 321 322 323 327 332 334 333 332 330 330 331 331 330 328 325 324 323 323 324 325 326 326 327 326 326 327 327 327 327 327 327 327 327 324 323 323
335 333 329 326 323 322 322 322 322 328 333 334 331 329 328 328 329 328 326 324 323 323 323 323 324 325 326 327 326 326 326 326 326 326 326 326 326 326 326 325 325 325
334 333 330 326 324 324 324 323 323 329 334 331 327 326 326 326 325 325 324 324 324 324 324 324 324 324 326 326 326 325 325 326 325 325 325 325 325 325 325 326 326 325
334 334 332 329 327 327 327 324 324 328 330 326 324 325 325 325 324 324 324 324 325 326 326 325 325 326 326 326 326 325 325 326 326 324 324 324 325 325 325 326 325 325
337 336 335 332 327 326 327 326 326 326 325 323 323 324 324 324 323 324 324 326 327 328 328 327 327 327 327 327 327 326 326 326 326 326 325 325 325 325 324 324 324 324
338 336 337 332 325 324 328 329 328 325 324 323 323 323 323 324 324 325 326 328 330 331 331 330 328 328 328 327 328 327 327 327 327 327 327 327 326 326 325 324 323 323
338 337 335 329 324 325 330 332 328 324 324 324 324 324 324 325 326 327 328 330 332 333 333 332 330 328 328 328 328 327 327 327 327 328 328 327 327 327 326 325 322 321
337 337 335 328 324 327 332 332 327 323 324 325 325 325 325 326 328 329 331 333 334 334 334 333 330 328 328 328 328 328 328 327 327 327 328 328 327 327 327 326 323 321
337 338 336 329 324 328 333 330 325 323 323 324 325 325 326 328 329 331 332 333 333 333 333 332 331 329 329 329 328 328 327 327 326 326 327 327 327 327 327 326 323 321
337 338 336 330 326 329 331 328 324 323 324 324 325 326 328 328 329 331 334 334 332 331 330 330 330 329 329 328 328 328 327 326 324 325 326 326 326 327 327 325 322 320
336 337 336 332 329 329 328 325 323 323 324 326 327 328 329 330 331 333 334 333 331 329 329 330 330 328 328 328 328 327 328 326 323 323 324 326 326 327 325 322 320 320
338 338 337 335 333 331 328 325 323 324 325 327 329 330 330 331 333 334 333 331 330 329 329 330 329 328 327 327 327 327 328 326 323 322 323 323 325 324 322 320 320 320
338 338 335 333 334 335 333 329 326 325 326 329 331 333 332 332 333 333 331 330 329 329 330 330 329 327 326 326 327 327 327 325 323 322 322 323 323 322 321 320 320 320
Wind_Speed
13 11 10 10 10 10 10 10 10 9 9 9 8 8 9 9 8 8 8 8 7 6 6 6 7 6 5 5 5 5 5 5 4 5 5 5 6 6 6 7 7 7
14 12 12 11 10 10 10 10 9 8 8 8 7 7 8 8 7 7 6 6 5 6 7 8 8 7 6 6 7 8 8 7 7 6 6 6 6 6 8 8 8 9
15 14 12 11 10 10 10 9 8 7 7 6 5 6 6 5 5 4 4 4 5 7 8 9 9 9 9 8 9 10 10 10 9 9 9 8 8 8 9 10 10 11
16 14 12 11 10 10 10 9 9 7 6 5 4 4 3 2 2 2 1 3 4 5 6 8 9 10 11 11 11 11 12 12 11 11 11 10 9 10 10 11 11 12
17 15 13 12 12 10 10 10 8 7 6 5 4 3 2 1 2 3 1 4 4 4 6 8 9 9 9 10 11 12 12 13 12 12 13 12 11 11 11 12 12 13
18 16 14 14 12 11 10 9 8 7 7 7 5 5 3 2 2 3 3 5 6 6 8 10 11 10 10 11 12 12 11 11 12 13 14 14 13 13 13 14 14 15
19 17 16 15 13 12 11 10 8 9 9 7 6 5 4 3 3 4 5 6 7 9 10 12 12 11 11 13 13 13 12 12 12 13 14 15 15 14 14 15 16 17
20 18 16 15 14 13 12 11 10 11 10 7 5 4 4 5 6 6 6 7 8 10 12 13 14 13 12 13 15 15 15 14 14 14 15 15 15 15 16 16 17 18
21 19 17 16 15 14 13 12 12 13 11 8 6 5 6 7 8 8 8 9 11 13 14 15 16 15 13 14 15 16 16 16 16 16 16 15 15 16 16 16 18 19
22 20 18 17 16 15 14 13 13 14 11 8 7 6 7 8 9 9 9 10 13 15 16 17 17 16 14 14 15 17 18 19 18 16 16 16 17 17 16 16 17 18
24 21 19 17 15 14 13 12 13 14 12 9 9 8 8 10 11 12 12 13 15 16 17 17 16 16 17 17 18 19 21 20 18 16 16 17 17 17 16 16 16 18
25 22 19 16 14 13 12 12 14 14 12 11 9 8 9 11 13 14 15 16 16 17 17 17 16 17 19 19 20 20 20 19 17 17 17 18 17 17 16 16 16 16
26 22 18 14 13 11 11 14 16 15 13 12 10 9 12 14 13 14 15 16 17 18 18 18 18 18 18 18 18 18 18 18 17 18 18 18 18 18 17 17 16 15
25 20 16 13 12 11 12 14 16 15 14 13 11 12 15 15 15 15 17 18 18 18 18 18 17 16 15 15 17 17 17 17 17 18 19 19 20 19 18 17 16 16
23 19 16 12 12 12 13 15 14 14 15 14 13 14 16 16 16 17 18 17 15 15 15 14 14 14 14 15 17 16 16 16 18 19 20 20 20 20 19 19 19 19
22 20 17 12 12 13 14 14 14 15 16 15 14 14 15 16 16 16 15 14 12 12 12 13 13 13 14 16 17 16 17 18 20 20 19 19 19 19 20 21 21 21
25 25 19 11 11 14 13 14 14 15 16 15 14 15 15 15 14 14 13 12 11 11 12 14 15 14 15 16 17 18 18 20 20 21 19 18 18 19 20 21 22 23
30 28 19 12 12 15 14 15 16 16 16 16 15 15 15 15 14 14 13 12 12 12 14 15 16 17 17 18 19 19 20 20 21 21 20 19 19 19 20 21 22 23
32 26 18 14 15 15 15 17 18 18 19 18 16 16 16 16 16 15 14 13 13 15 16 17 18 19 19 21 21 21 20 21 21 21 20 20 20 20 20 20 21 22
32 20 14 13 15 15 17 20 20 20 20 19 18 17 17 18 17 15 14 14 15 17 19 20 20 20 21 22 23 23 22 22 22 22 21 21 21 22 22 21 22 22
26 17 16 15 16 17 21 23 22 22 22 21 20 19 18 18 17 16 15 15 17 19 21 21 20 20 22 23 24 25 23 23 24 24 23 22 22 23 23 22 23 23
21 19 18 18 19 21 24 24 23 23 23 22 21 19 18 18 18 17 17 16 17 19 20 21 20 21 23 24 24 24 23 24 24 25 25 25 24 24 24 24 24 22
22 20 21 22 23 26 27 26 25 24 23 22 21 20 19 18 18 18 17 17 17 18 19 20 21 22 22 23 24 24 25 25 23 22 23 24 24 24 24 24 23 20
26 23 23 25 27 28 28 27 26 23 22 22 22 22 21 20 18 17 17 18 19 19 20 20 20 20 21 22 24 25 26 24 21 19 20 22 22 23 23 22 20 18
29 25 25 27 29 29 28 28 25 23 22 23 23 24 23 21 19 18 19 20 19 20 20 19 19 20 22 24 24 24 23 21 20 19 20 21 21 21 21 19 18 17
32 27 25 28 29 29 29 27 26 25 25 24 25 26 25 22 20 18 18 19 20 20 20 20 21 22 24 24 22 21 20 19 19 19 19 19 19 20 20 18 17 17
Wind_Direction
217 208 209 215 215 216 214 210 213 223 234 242 243 236 231 232 237 242 248 258 269 285 300 304 303 301 302 305 306 308 314 313 302 295 291 290 286 275 272 281 293 308
213 205 207 209 206 208 207 204 210 220 231 240 240 231 226 227 234 243 251 261 279 295 297 295 296 295 294 299 304 309 314 316 312 302 292 286 278 271 272 277 285 297
212 206 205 206 202 200 200 204 209 216 228 237 233 228 222 222 237 253 258 272 289 293 291 294 297 294 291 292 296 302 305 307 309 304 296 286 277 275 273 273 279 287
211 207 204 207 204 195 196 203 205 208 214 213 209 204 198 214 239 219 236 302 296 286 297 312 312 301 293 288 286 290 295 297 300 300 298 289 281 279 276 274 277 281
211 207 202 207 208 198 195 199 197 193 184 176 172 152 149 218 220 187 214 335 317 295 316 333 334 325 311 301 294 292 294 294 294 293 292 291 288 285 280 277 278 281
209 206 204 208 208 202 199 197 191 179 169 167 158 135 134 187 215 221 275 321 323 311 318 329 334 333 330 325 318 311 305 300 296 291 288 289 290 288 283 280 282 285
207 206 206 208 208 207 203 199 190 175 172 177 169 157 167 199 239 264 284 306 314 311 312 318 322 324 324 323 319 316 313 307 304 299 293 290 288 285 284 283 284 287
207 207 207 209 210 210 206 202 194 180 179 188 185 192 220 238 254 267 279 292 298 300 303 309 313 315 315 312 308 308 310 308 306 304 299 293 288 283 282 283 284 284
205 207 208 210 211 212 211 206 195 185 187 193 191 210 242 255 264 270 278 286 291 295 300 305 306 305 303 301 297 296 301 303 303 301 297 293 289 285 282 282 283 283
203 204 206 209 212 214 213 206 195 191 193 195 196 212 234 247 258 268 277 284 289 293 297 297 295 291 290 289 286 287 294 299 299 296 294 291 288 286 283 281 282 283
201 201 203 206 210 214 215 207 197 196 199 202 205 216 229 237 247 258 265 270 278 285 288 285 283 286 290 291 290 290 294 297 295 293 293 291 288 286 282 280 282 285
200 200 201 203 207 212 216 214 207 205 208 210 212 223 242 250 253 255 256 261 270 277 277 276 279 286 291 293 292 291 292 293 293 293 293 291 287 284 281 280 282 285
201 199 197 198 201 205 216 220 216 216 218 220 225 238 254 262 260 255 257 265 272 275 275 276 281 284 288 293 295 295 293 293 294 295 295 293 288 284 282 280 280 284
204 200 192 189 193 202 216 219 216 219 224 227 235 244 254 261 262 261 266 273 276 277 278 278 280 283 288 298 302 299 295 295 297 298 297 296 292 287 284 280 279 284
207 203 191 187 197 208 219 219 217 220 224 229 238 246 253 259 262 265 268 272 275 277 279 280 283 289 296 302 303 301 299 300 302 301 299 297 294 291 287 282 280 284
205 205 198 200 208 213 219 220 221 223 225 233 242 247 254 258 258 259 260 266 276 282 287 289 291 297 301 301 302 301 301 302 301 299 296 294 294 293 290 287 284 285
196 201 207 221 216 212 220 222 222 226 230 238 245 249 256 258 255 254 257 266 280 289 295 295 294 298 300 300 301 301 300 300 297 294 292 293 296 296 293 290 287 287
192 199 218 242 221 211 223 227 225 230 233 238 242 246 252 254 253 255 261 269 278 285 292 295 295 295 294 296 298 298 298 298 295 293 292 293 297 299 298 295 292 291
194 202 228 238 215 212 226 229 232 235 234 237 241 243 249 252 254 258 264 272 279 282 287 290 293 292 290 291 293 293 293 294 293 293 292 293 296 299 301 303 301 297
196 212 243 228 210 218 228 231 237 239 237 240 243 245 251 254 256 262 268 276 280 279 280 284 288 288 286 285 284 284 287 289 288 287 287 289 293 296 298 304 307 303
202 238 256 228 214 222 229 234 241 241 240 243 243 246 252 256 259 263 268 274 278 278 280 283 284 284 281 279 278 280 286 290 289 287 284 282 284 287 290 298 305 303
217 249 246 227 222 225 231 237 239 238 239 241 242 245 251 255 259 261 265 272 277 280 281 280 279 279 278 278 278 282 289 293 292 289 284 279 278 280 284 294 302 301
225 246 237 227 224 225 231 236 234 235 238 238 240 244 248 255 261 263 267 271 273 273 273 272 274 275 276 278 281 286 292 296 296 292 285 279 277 278 285 294 301 300
226 240 234 227 223 224 230 233 232 236 240 240 242 246 249 257 263 263 263 263 265 270 270 269 271 275 278 282 285 290 295 298 301 300 292 285 281 282 288 295 298 298
230 235 230 226 224 226 231 234 237 241 243 244 246 248 251 256 257 256 255 257 265 273 270 267 272 280 285 288 291 295 297 297 300 304 300 293 289 289 292 295 295 296
233 234 231 229 227 228 233 238 243 246 244 244 247 248 249 248 246 249 254 262 272 275 270 269 277 283 287 290 295 300 301 300 302 304 302 297 293 292 293 296 297 297